TimeEDT,TemperatureF,Dew PointF,Humidity,Sea Level PressureIn,VisibilityMPH,Wind Direction,Wind SpeedMPH,Gust SpeedMPH,PrecipitationIn,Events,Conditions,WindDirDegrees,DateUTC
12:21 AM,53.6,51.8,94,30.00,1.5,Calm,Calm,-,N/A,,Clear,0,2013-09-21 04:21:00
12:36 AM,53.6,51.8,94,30.00,4.0,Calm,Calm,-,N/A,,Clear,0,2013-09-21 04:36:00
12:54 AM,51.1,50.0,96,30.00,8.0,Calm,Calm,-,N/A,,Clear,0,2013-09-21 04:54:00
1:54 AM,52.0,51.1,97,29.99,3.0,Calm,Calm,-,N/A,,Clear,0,2013-09-21 05:54:00
2:43 AM,51.8,51.8,100,29.98,5.0,Calm,Calm,-,N/A,,Mostly Cloudy,0,2013-09-21 06:43:00
2:51 AM,51.8,50.0,94,29.98,1.8,Calm,Calm,-,N/A,,Mostly Cloudy,0,2013-09-21 06:51:00
2:54 AM,52.0,50.0,93,29.97,0.8,Calm,Calm,-,N/A,,Mist,0,2013-09-21 06:54:00
3:12 AM,51.8,50.0,94,29.97,2.0,Calm,Calm,-,N/A,,Mostly Cloudy,0,2013-09-21 07:12:00
3:15 AM,51.8,50.0,94,29.97,1.2,Calm,Calm,-,N/A,,Mostly Cloudy,0,2013-09-21 07:15:00
3:17 AM,50.0,50.0,100,29.97,0.8,Calm,Calm,-,N/A,,Mist,0,2013-09-21 07:17:00
3:26 AM,48.2,48.2,100,29.96,0.2,Calm,Calm,-,N/A,Fog,Fog,0,2013-09-21 07:26:00
3:34 AM,50.0,48.2,94,29.96,0.2,Calm,Calm,-,N/A,Fog,Fog,0,2013-09-21 07:34:00
3:41 AM,48.2,48.2,100,29.96,0.2,Calm,Calm,-,N/A,Fog,Fog,0,2013-09-21 07:41:00
3:54 AM,50.0,48.9,96,29.97,0.2,Calm,Calm,-,0.00,Fog-Rain,Light Rain,0,2013-09-21 07:54:00
4:54 AM,48.9,48.0,97,29.96,0.2,Calm,Calm,-,0.00,Fog,Fog,0,2013-09-21 08:54:00
5:54 AM,48.9,48.0,97,29.96,0.2,Calm,Calm,-,0.01,Fog,Fog,0,2013-09-21 09:54:00
6:54 AM,48.9,46.9,93,29.96,0.2,Calm,Calm,-,N/A,Fog,Fog,0,2013-09-21 10:54:00
7:02 AM,48.2,46.4,93,29.96,1.0,Calm,Calm,-,N/A,,Mist,0,2013-09-21 11:02:00
7:09 AM,46.4,46.4,100,29.96,0.2,Calm,Calm,-,N/A,Fog,Fog,0,2013-09-21 11:09:00
7:24 AM,48.2,46.4,93,29.97,0.2,Calm,Calm,-,N/A,Fog,Fog,0,2013-09-21 11:24:00
7:45 AM,50.0,48.2,94,29.96,0.2,Calm,Calm,-,N/A,Fog,Fog,0,2013-09-21 11:45:00
7:52 AM,51.8,51.8,100,29.96,1.2,Calm,Calm,-,N/A,,Overcast,0,2013-09-21 11:52:00
7:54 AM,52.0,51.1,97,29.96,1.8,Calm,Calm,-,N/A,,Overcast,0,2013-09-21 11:54:00
8:10 AM,53.6,53.6,100,29.95,3.0,Calm,Calm,-,N/A,,Mostly Cloudy,0,2013-09-21 12:10:00
8:22 AM,55.4,53.6,94,29.95,4.0,Calm,Calm,-,N/A,,Scattered Clouds,0,2013-09-21 12:22:00
8:54 AM,57.0,55.9,96,29.94,7.0,North,-9999.0,-,N/A,,Unknown,0,2013-09-21 12:54:00
9:54 AM,64.0,57.9,80,29.92,10.0,Calm,Calm,-,N/A,,Clear,0,2013-09-21 13:54:00
10:22 AM,66.2,57.2,73,29.90,10.0,SSW,8.1,-,N/A,,Mostly Cloudy,200,2013-09-21 14:22:00
10:54 AM,66.9,57.9,73,29.89,10.0,South,15.0,-,N/A,,Mostly Cloudy,180,2013-09-21 14:54:00
11:07 AM,68.0,60.8,78,29.88,10.0,South,9.2,-,N/A,,Unknown,190,2013-09-21 15:07:00
11:54 AM,68.0,60.1,76,29.87,10.0,SSW,12.7,19.6,N/A,,Overcast,200,2013-09-21 15:54:00
12:54 PM,72.0,62.1,71,29.84,10.0,South,11.5,-,N/A,,Mostly Cloudy,170,2013-09-21 16:54:00
1:54 PM,73.0,62.1,68,29.80,10.0,South,11.5,-,N/A,,Overcast,170,2013-09-21 17:54:00
2:54 PM,73.0,62.1,68,29.77,10.0,South,9.2,-,N/A,,Overcast,180,2013-09-21 18:54:00
3:54 PM,75.0,63.0,66,29.74,10.0,South,10.4,-,N/A,,Overcast,170,2013-09-21 19:54:00
4:54 PM,73.9,62.1,66,29.73,10.0,South,11.5,18.4,N/A,,Mostly Cloudy,180,2013-09-21 20:54:00
5:54 PM,72.0,61.0,68,29.70,10.0,South,10.4,-,N/A,,Partly Cloudy,170,2013-09-21 21:54:00
6:54 PM,71.1,61.0,70,29.70,10.0,South,12.7,17.3,N/A,,Scattered Clouds,170,2013-09-21 22:54:00
7:54 PM,71.1,62.1,73,29.70,10.0,South,10.4,-,N/A,,Overcast,180,2013-09-21 23:54:00
8:54 PM,68.0,64.0,87,29.69,4.0,South,5.8,-,0.03,Rain,Rain,190,2013-09-22 00:54:00
9:54 PM,66.9,64.9,93,29.67,8.0,South,4.6,-,0.03,Rain,Light Rain,190,2013-09-22 01:54:00
10:11 PM,66.2,64.4,94,29.67,8.0,SSW,3.5,-,0.02,Rain,Light Rain,210,2013-09-22 02:11:00
10:30 PM,66.2,64.4,94,29.66,6.0,SSW,4.6,-,0.03,Rain,Light Rain,210,2013-09-22 02:30:00
10:54 PM,66.9,64.9,93,29.65,7.0,South,5.8,-,0.04,Rain,Light Rain,180,2013-09-22 02:54:00
11:14 PM,66.2,64.4,94,29.66,4.0,WNW,12.7,20.7,0.08,Rain,Rain,290,2013-09-22 03:14:00
11:28 PM,62.6,60.8,94,29.67,6.0,West,9.2,17.3,0.12,Rain,Rain,270,2013-09-22 03:28:00
11:49 PM,62.6,59.0,88,29.67,2.5,WNW,5.8,-,0.24,Rain,Heavy Rain,300,2013-09-22 03:49:00
11:54 PM,62.1,59.0,90,29.67,4.0,West,4.6,-,0.24,Rain,Rain,260,2013-09-22 03:54:00